Weather History for De Queen, AR

Change the Weather History Date:

Saturday, November 1, 2014

  Actual Average Record
Temperature  
Mean Temperature 43 °F 58 °F  
Max Temperature 58 °F 71 °F 88 °F (1984)
Min Temperature 28 °F 45 °F 21 °F (1993)
Degree Days  
Heating Degree Days 22 8  
Month to date heating degree days 22 8  
Since 1 July heating degree days 103 141  
Cooling Degree Days 0 1  
Month to date cooling degree days 0 1  
Year to date cooling degree days 1710 1935  
Moisture  
Dew Point 30 °F    
Average Humidity 65    
Maximum Humidity 100    
Minimum Humidity 30    
Precipitation  
Precipitation 0.00 in 0.16 in 1.64 in (1974)
Month to date precipitation 0.00 0.16  
Year to date precipitation 38.59 39.88  
Snow  
Snow 0.00 in - - ()
Month to date snowfall 0.0  
Since 1 July snowfall 0.0  
Since 1 September snowfall 0.0  
Snow Depth 0.00 in    
Sea Level Pressure  
Sea Level Pressure 30.41 in    
Wind  
Wind Speed 2 mph (East)    
Max Wind Speed 13 mph    
Max Gust Speed 16 mph    
Visibility 6 miles    
Events Fog    
T = Trace of Precipitation, MM = Missing Value Source: NWS Daily Summary

Daily Weather History Graph

Daily Weather History Graph

Search for Another Location

Airport:

Trip Planner

Search our weather history database for the weather conditions in past years. The results will help you decide how hot, cold, wet, or windy it might be!

Date:

Astronomy

Nov. 01, 2014 Rise Set
Actual Time 7:37 AM CDT 6:24 PM CDT
Civil Twilight 7:11 AM CDT 6:50 PM CDT
Nautical Twilight 6:41 AM CDT 7:20 PM CDT
Astronomical Twilight 6:12 AM CDT 7:49 PM CDT
Moon 3:04 PM CDT 1:49 AM CDT
Length of Visible Light 11h 39m
Length of Day
10h 47m
Waxing Gibbous, 68% of the Moon is Illuminated
Nov 1
Waxing Gibbous
Nov 6
Full
Nov 14
Last Quarter
Nov 22
New
Nov 29
First Quarter

Hourly Weather History & Observations

Time (CDT) Temp. Windchill Dew Point Humidity Pressure Visibility Wind Dir Wind Speed Gust Speed Precip Events Conditions
12:53 AM 36.0 °F - 34.0 °F 93% 30.36 in 10.0 mi Calm Calm - N/A   Clear
1:53 AM 35.1 °F - 33.1 °F 92% 30.37 in 10.0 mi Calm Calm - N/A   Clear
2:53 AM 34.0 °F - 32.0 °F 92% 30.38 in 8.0 mi Calm Calm - N/A   Clear
3:53 AM 32.0 °F - 30.9 °F 96% 30.38 in 10.0 mi Calm Calm - N/A   Clear
4:16 AM 30.9 °F - 30.9 °F 100% 30.39 in 2.5 mi Calm Calm - N/A   Clear
4:23 AM 30.9 °F - 30.9 °F 100% 30.39 in 5.0 mi Calm Calm - N/A   Clear
4:30 AM 30.9 °F 27.5 °F 30.0 °F 96% 30.39 in 1.8 mi NE 3.5 mph - N/A   Clear
4:40 AM 30.0 °F - 28.9 °F 96% 30.40 in 0.8 mi Calm Calm - N/A   Mist
4:44 AM 30.9 °F - 30.0 °F 96% 30.40 in 1.8 mi Calm Calm - N/A   Partly Cloudy
4:51 AM 32.0 °F - 30.2 °F 93% 30.40 in 10.0 mi Calm Calm - N/A   Partly Cloudy
4:53 AM 32.0 °F - 30.0 °F 92% 30.40 in 10.0 mi Calm Calm - N/A   Partly Cloudy
5:04 AM 30.9 °F - 30.9 °F 100% 30.41 in 1.5 mi Calm Calm - N/A   Partly Cloudy
5:06 AM 30.9 °F - 30.9 °F 100% 30.41 in 0.8 mi Calm Calm - N/A   Mist
5:53 AM 30.0 °F - 28.9 °F 96% 30.42 in 1.0 mi Calm Calm - N/A   Mist
6:01 AM 30.0 °F - 28.9 °F 96% 30.42 in 0.5 mi Calm Calm - N/A Fog Light Freezing Fog
6:05 AM 30.0 °F - 28.9 °F 96% 30.42 in 0.5 mi Calm Calm - N/A Fog Light Freezing Fog
6:07 AM 30.0 °F - 28.9 °F 96% 30.42 in 0.2 mi Calm Calm - N/A Fog Light Freezing Fog
6:18 AM 30.0 °F - 28.9 °F 96% 30.42 in 0.5 mi Calm Calm - N/A Fog Light Freezing Fog
6:44 AM 30.0 °F - 28.9 °F 96% 30.43 in 1.2 mi Calm Calm - N/A   Scattered Clouds
6:53 AM 28.9 °F - 28.0 °F 96% 30.43 in 10.0 mi Calm Calm - N/A   Partly Cloudy
7:04 AM 28.9 °F 25.2 °F 28.0 °F 96% 30.43 in 0.8 mi East 3.5 mph - N/A   Mist
7:13 AM 28.9 °F - 28.0 °F 96% 30.44 in 0.2 mi Calm Calm - N/A Fog Light Freezing Fog
7:17 AM 28.9 °F - 28.0 °F 96% 30.44 in 1.0 mi Calm Calm - N/A   Mist
7:19 AM 28.9 °F - 28.0 °F 96% 30.44 in 2.0 mi Calm Calm - N/A   Partly Cloudy
7:31 AM 28.9 °F - 28.9 °F 100% 30.44 in 1.0 mi Calm Calm - N/A   Mist
7:36 AM 28.9 °F - 28.9 °F 100% 30.44 in 0.8 mi Calm Calm - N/A   Clear
7:42 AM 28.9 °F - 28.9 °F 100% 30.44 in 2.5 mi Calm Calm - N/A   Clear
7:49 AM 28.4 °F - 28.4 °F 100% 30.44 in 10.0 mi Calm Calm - N/A   Clear
7:53 AM 28.9 °F - 28.9 °F 100% 30.45 in 10.0 mi Calm Calm - N/A   Clear
8:53 AM 32.0 °F - 30.9 °F 96% 30.47 in 10.0 mi Calm Calm - N/A   Clear
9:53 AM 42.1 °F 37.7 °F 28.9 °F 60% 30.47 in 10.0 mi East 6.9 mph - N/A   Clear
10:53 AM 45.0 °F 40.6 °F 27.0 °F 49% 30.47 in 10.0 mi ESE 8.1 mph - N/A   Clear
11:53 AM 48.9 °F - 27.0 °F 43% 30.46 in 10.0 mi East 5.8 mph - N/A   Clear
12:53 PM 51.1 °F - 26.1 °F 38% 30.43 in 10.0 mi Variable 4.6 mph - N/A   Clear
1:53 PM 54.0 °F - 26.1 °F 34% 30.39 in 10.0 mi NNE 3.5 mph - N/A   Clear
2:53 PM 55.0 °F - 25.0 °F 31% 30.37 in 10.0 mi South 4.6 mph - N/A   Clear
3:53 PM 55.9 °F - 24.1 °F 29% 30.36 in 10.0 mi Calm Calm - N/A   Clear
4:53 PM 55.9 °F - 26.1 °F 32% 30.35 in 10.0 mi South 3.5 mph - N/A   Clear
5:53 PM 54.0 °F - 28.9 °F 38% 30.34 in 10.0 mi SE 3.5 mph - N/A   Clear
6:53 PM 44.1 °F - 37.0 °F 76% 30.35 in 10.0 mi Calm Calm - N/A   Clear
7:53 PM 43.0 °F - 37.0 °F 80% 30.36 in 10.0 mi Calm Calm - N/A   Clear
8:53 PM 37.9 °F 34.4 °F 37.0 °F 97% 30.35 in 10.0 mi East 4.6 mph - N/A   Clear
9:53 PM 37.0 °F 34.5 °F 36.0 °F 96% 30.36 in 10.0 mi East 3.5 mph - N/A   Clear
10:53 PM 37.0 °F 34.5 °F 35.1 °F 93% 30.36 in 10.0 mi ENE 3.5 mph - N/A   Clear
11:53 PM 37.0 °F 34.5 °F 35.1 °F 93% 30.36 in 10.0 mi East 3.5 mph - N/A   Clear